This is the latest recevied weather packets stored in our database for station/object OK2ZAW-19. If no packets are shown the sender has not sent any weather packets the latest 10 day(s).
| Time | Temp. | Humidity | Pressure | Rain* | Wind** | Luminosity | Snow |
|---|---|---|---|---|---|---|---|
| 1777558386 | 18.33° C | 25% | 1027.7 hPa | - | - | 337 W/m² | - |
| 1777558075 | 17.22° C | 24% | 1027.7 hPa | - | - | 337 W/m² | - |
| 1777557764 | 17.22° C | 24% | 1027.7 hPa | - | - | 337 W/m² | - |
| 1777557453 | 17.22° C | 23% | 1027.8 hPa | - | - | 335 W/m² | - |
| 1777556519 | 17.22° C | 26% | 1027.8 hPa | - | - | 337 W/m² | - |
| 1777555897 | 16.67° C | 27% | 1028 hPa | - | - | 337 W/m² | - |
| 1777555586 | 16.11° C | 25% | 1028.1 hPa | - | - | 337 W/m² | - |
| 1777555275 | 16.11° C | 27% | 1028 hPa | - | - | 338 W/m² | - |
| 1777554652 | 15.56° C | 27% | 1028.2 hPa | - | - | 337 W/m² | - |
| 1777554341 | 15.56° C | 28% | 1028.2 hPa | - | - | 338 W/m² | - |
| 1777554031 | 15° C | 28% | 1028.2 hPa | - | - | 337 W/m² | - |
| 1777553720 | 15° C | 29% | 1028.2 hPa | - | - | 335 W/m² | - |
| 1777553409 | 15° C | 30% | 1028.2 hPa | - | - | 337 W/m² | - |
| 1777553098 | 14.44° C | 29% | 1028.4 hPa | - | - | 337 W/m² | - |
| 1777552787 | 14.44° C | 30% | 1028.5 hPa | - | - | 337 W/m² | - |
| 1777552476 | 14.44° C | 30% | 1028.5 hPa | - | - | 337 W/m² | - |
| 1777551854 | 13.89° C | 31% | 1028.6 hPa | - | - | 337 W/m² | - |
| 1777551543 | 13.89° C | 32% | 1028.6 hPa | - | - | 337 W/m² | - |
| 1777551232 | 13.89° C | 32% | 1028.7 hPa | - | - | 337 W/m² | - |
| 1777550922 | 13.33° C | 33% | 1028.7 hPa | - | - | 337 W/m² | - |
| 1777550611 | 12.78° C | 33% | 1028.6 hPa | - | - | 337 W/m² | - |
| 1777550300 | 12.78° C | 33% | 1028.6 hPa | - | - | 337 W/m² | - |
| 1777549679 | 12.78° C | 33% | 1028.6 hPa | - | - | 337 W/m² | - |
| 1777549368 | 12.78° C | 32% | 1028.8 hPa | - | - | 337 W/m² | - |
| 1777549057 | 12.78° C | 33% | 1028.8 hPa | - | - | 337 W/m² | - |
* Rain since midnight (hover to see other rain measurements)
** Current wind speed in m/s (hover to see current wind gust speed)